BEIDOU-2 G4 (37210 NORAD) Tracking and Keplerian Element Data

This shows tracking and keplerian element data for the satellite.

Feedback or suggestion? Click here.




ElementValue
Catalog37210
NameBEIDOU-2 G4
Epoch Orbit5229
Epoch Day34.71528524
Epoch Year2025
RAAN70.423
Inclination2.409
Eccentricity0.000888
Argument of Perigee199.2422
Mean Anonmoly281.8809
Mean Motion1.00272445
Decay Rate-1.1E-06
L11 37210U 10057A 25034.71528524 -.00000110 00000+0 00000+0 0 9995
L22 37210 2.4090 70.4230 0008880 199.2422 281.8809 1.00272445 52298



Live tracking and technical data element details for BEIDOU-2 G4 (NORAD 37210). BEIDOU-2 G4 can be tracked NOW for your location showing map with azimuth and elevation plus other details from your city location.







IsCatalogInMostPopularTable: catalog: 37210, numindb: 353
Update: records affected: 1



GetName: 37210 BEIDOU-2 G4

Hit Count: updated at: Thu, 22 May 2025 03:28:20 GMT